DECAYED

OBJECT AE, 47441 (Decayed)

Orbit data source: Space-Track

You're viewing an Uncataloged Satellite

Recently launched and/or uncataloged satellites may have evolving metadata. Metadata may include but not limited to: Owner, Maufacturer, Bus, Motor, and Mission.

OBJECT AE, 47441 was a satellite in LEO that was launched on Sun, 24 Jan 2021 UTC via an FALCON 9 launch vehicle from the Air Force Eastern Test Range (AFETR). Unknown objects in Earth's orbit typically refer to objects detected orbiting the Earth but have not yet been identified or cataloged. These objects could be anything from previously untracked satellites, spent rocket stages, debris from satellite collisions, or even natural meteoroids temporarily captured by Earth's gravity. This object's orbit decayed before it could be identified.

Not visible in the next 10 days
Identifier
47441, 2021-006AE
Orbit
Decayed
Country
Flag of TBDTBD
Related business
None
Manufacturer
ITUTR/ASELSN
Mission
Decayed Commercial Technology
Bus & Motor
CUBESAT 3U, Unknown motor
Mass
4 kg wet, 4 kg dry
Launch date (UTC)
2021-01-24 (5 years ago)
Launch vehicle
FALCON 9
Launch site
Air Force Eastern Test Range (AFETR)
Object type
Unknown
Shape & HBR
Box + 2 Pan, 0.1 m
Radar Cross Section
0.035 m², Small (<0.1 m²)

Expand to show TLE details & history
Last TLE update: 1 year ago

TLE from 1 year ago
0 OBJECT AE
1 47441U 21006AE  24163.33992307  .16627094  24252-5  23736-3 0  9990
2 47441  97.2877 230.5397 0019040 190.9473 169.1419 16.47470004188335
Epoch: 2024-06-11T08:09Z
TLE epoch observation values (Epoch: 2024-06-11T08:09:29.353Z)
Latitude
-0.00003°
Longitude
-151.99515°
Altitude
161.474 km
Speed
7.802 km/s
True Right ascension
15h 22m 09s
True Declination
0° 00' 00"
Sunlit
Object was in full shadow at epoch
Visualization orbit readout
Latitude
Unknown
Longitude
Unknown
Altitude
Unknown
Speed
Unknown
Apparent Right ascension
Unknown
Apparent Declination
Unknown
Sunlit
N/A
Visualization observer readout
Local Sidereal Time
02:20:19
Azimuth
Unknown
Elevation
Unknown
Doppler factor
Unknown
Orbital elements
Apogee altitude
155.215 km
Perigee altitude
130.383 km
Semi-major axis
6,520.936 km
Eccentricity
0.0019
Inclination
97.2877°
RAAN
230.5397°
Arg. of periapsis
190.9473°
True anomaly
169.1829°
Mean anomaly
169.1419°
Eccentric anomaly
169.16241°
Mean motion
4.12172 °/min
Orbital period
87.34 mins
BSTAR
0.00023736
Loading maneuver chart data...
Computing Atmospheric mass density...

Documentation

Showing up to 5 results
|